Time,TemperatureF,DewpointF,PressureIn,WindDirection,WindDirectionDegrees,WindSpeedMPH,WindSpeedGustMPH,Humidity,HourlyPrecipIn,Conditions,Clouds,dailyrainin,SoftwareType,DateUTC
2013-10-10 00:00:00,54.9,51.7,30.00,NNW,338,2.2,2.2,89,0.00,,,0.00,WUHU216HW,2013-10-10 04:00:00,
2013-10-10 00:01:00,54.9,51.7,30.00,NNW,338,2.2,2.2,89,0.00,,,0.00,WUHU216HW,2013-10-10 04:01:00,
2013-10-10 00:06:00,54.9,51.7,30.00,NNW,338,2.2,2.2,89,0.00,,,0.00,WUHU216HW,2013-10-10 04:06:00,
2013-10-10 00:30:00,54.9,51.7,29.99,NNW,338,7.8,7.8,89,0.00,,,0.00,WUHU216HW,2013-10-10 04:30:00,
2013-10-10 00:35:00,54.9,51.7,29.99,NNW,338,7.8,7.8,89,0.00,,,0.00,WUHU216HW,2013-10-10 04:35:00,
2013-10-10 01:00:00,54.5,51.3,29.98,NNE,23,1.6,1.6,89,0.01,,,0.00,WUHU216HW,2013-10-10 05:00:00,
2013-10-10 01:05:00,54.5,51.3,29.98,NNE,23,1.6,1.6,89,0.01,,,0.00,WUHU216HW,2013-10-10 05:05:00,
2013-10-10 01:30:00,54.5,51.3,29.98,North,0,1.8,1.8,89,0.01,,,0.00,WUHU216HW,2013-10-10 05:30:00,
2013-10-10 01:35:00,54.5,51.3,29.98,North,0,1.8,1.8,89,0.01,,,0.00,WUHU216HW,2013-10-10 05:35:00,
2013-10-10 02:00:00,54.5,51.3,29.97,North,0,1.3,1.3,89,0.00,,,0.00,WUHU216HW,2013-10-10 06:00:00,
2013-10-10 02:05:00,54.5,51.3,29.97,North,0,1.3,1.3,89,0.00,,,0.00,WUHU216HW,2013-10-10 06:05:00,
2013-10-10 02:30:00,54.5,51.3,29.96,North,0,7.6,7.6,89,0.00,,,0.00,WUHU216HW,2013-10-10 06:30:00,
2013-10-10 02:35:00,54.5,51.3,29.96,North,0,7.6,7.6,89,0.00,,,0.00,WUHU216HW,2013-10-10 06:35:00,
2013-10-10 03:00:00,54.4,51.2,29.95,North,0,2.7,2.7,89,0.01,,,0.00,WUHU216HW,2013-10-10 07:00:00,
2013-10-10 03:05:00,54.4,51.2,29.95,North,0,2.7,2.7,89,0.01,,,0.00,WUHU216HW,2013-10-10 07:05:00,
2013-10-10 03:30:00,54.0,50.9,29.95,NW,315,1.8,1.8,89,0.02,,,0.02,WUHU216HW,2013-10-10 07:30:00,
2013-10-10 04:00:00,53.8,50.9,29.94,NNE,23,2.2,2.2,90,0.02,,,0.03,WUHU216HW,2013-10-10 08:00:00,
2013-10-10 04:05:00,53.8,50.9,29.94,NNE,23,2.2,2.2,90,0.02,,,0.03,WUHU216HW,2013-10-10 08:05:00,
2013-10-10 04:30:00,53.6,50.8,29.94,North,0,3.4,3.4,90,0.01,,,0.04,WUHU216HW,2013-10-10 08:30:00,
2013-10-10 04:35:00,53.6,50.8,29.94,North,0,3.4,3.4,90,0.01,,,0.04,WUHU216HW,2013-10-10 08:35:00,
2013-10-10 05:00:00,53.8,50.9,29.94,NNW,338,1.6,1.6,90,0.00,,,0.04,WUHU216HW,2013-10-10 09:00:00,
2013-10-10 05:05:00,53.8,50.9,29.94,NNW,338,1.6,1.6,90,0.00,,,0.04,WUHU216HW,2013-10-10 09:05:00,
2013-10-10 05:30:00,53.6,50.8,29.93,North,0,0.9,0.9,90,0.01,,,0.04,WUHU216HW,2013-10-10 09:30:00,
2013-10-10 05:35:00,53.6,50.8,29.93,North,0,0.9,0.9,90,0.01,,,0.04,WUHU216HW,2013-10-10 09:35:00,
2013-10-10 06:00:00,53.6,50.8,29.94,NNW,338,0.9,0.9,90,0.05,,,0.05,WUHU216HW,2013-10-10 10:00:00,
2013-10-10 06:05:00,53.6,50.8,29.94,NNW,338,0.9,0.9,90,0.05,,,0.05,WUHU216HW,2013-10-10 10:05:00,
2013-10-10 06:30:00,53.5,50.9,29.94,North,0,3.1,3.1,91,0.10,,,0.09,WUHU216HW,2013-10-10 10:30:00,
2013-10-10 06:35:00,53.5,50.9,29.94,North,0,3.1,3.1,91,0.10,,,0.09,WUHU216HW,2013-10-10 10:35:00,
2013-10-10 07:00:00,53.6,51.0,29.94,North,0,5.4,5.4,91,0.08,,,0.15,WUHU216HW,2013-10-10 11:00:00,
2013-10-10 07:05:00,53.6,51.0,29.94,North,0,5.4,5.4,91,0.08,,,0.15,WUHU216HW,2013-10-10 11:05:00,
2013-10-10 07:30:00,53.6,51.0,29.94,North,0,0.4,0.4,91,0.02,,,0.17,WUHU216HW,2013-10-10 11:30:00,
2013-10-10 07:35:00,53.6,51.0,29.94,North,0,0.4,0.4,91,0.02,,,0.17,WUHU216HW,2013-10-10 11:35:00,
2013-10-10 08:00:00,53.6,51.0,29.95,North,0,1.8,1.8,91,0.00,,,0.17,WUHU216HW,2013-10-10 12:00:00,
2013-10-10 08:05:00,53.6,51.0,29.95,North,0,1.8,1.8,91,0.00,,,0.17,WUHU216HW,2013-10-10 12:05:00,
2013-10-10 08:30:00,53.8,51.2,29.95,WNW,293,1.1,1.1,91,0.00,,,0.17,WUHU216HW,2013-10-10 12:30:00,
2013-10-10 08:35:00,53.8,51.2,29.95,WNW,293,1.1,1.1,91,0.00,,,0.17,WUHU216HW,2013-10-10 12:35:00,
2013-10-10 09:00:00,54.0,51.4,29.95,WSW,248,1.8,1.8,91,0.00,,,0.17,WUHU216HW,2013-10-10 13:00:00,
2013-10-10 09:05:00,54.0,51.4,29.95,WSW,248,1.8,1.8,91,0.00,,,0.17,WUHU216HW,2013-10-10 13:05:00,
2013-10-10 09:30:00,54.2,51.6,29.95,North,0,1.1,1.1,91,0.00,,,0.17,WUHU216HW,2013-10-10 13:30:00,
2013-10-10 09:35:00,54.2,51.6,29.95,North,0,1.1,1.1,91,0.00,,,0.17,WUHU216HW,2013-10-10 13:35:00,
2013-10-10 10:00:00,54.4,51.8,29.95,NNW,338,0.7,0.7,91,0.00,,,0.17,WUHU216HW,2013-10-10 14:00:00,
2013-10-10 10:05:00,54.4,51.8,29.95,NNW,338,0.7,0.7,91,0.00,,,0.17,WUHU216HW,2013-10-10 14:05:00,
2013-10-10 10:30:00,54.5,51.9,29.94,North,0,1.6,1.6,91,0.00,,,0.17,WUHU216HW,2013-10-10 14:30:00,
2013-10-10 10:35:00,54.5,51.9,29.94,North,0,1.6,1.6,91,0.00,,,0.17,WUHU216HW,2013-10-10 14:35:00,
2013-10-10 11:00:00,54.9,52.3,29.94,NW,315,1.8,1.8,91,0.00,,,0.17,WUHU216HW,2013-10-10 15:00:00,
2013-10-10 11:05:00,54.9,52.3,29.94,NW,315,1.8,1.8,91,0.00,,,0.17,WUHU216HW,2013-10-10 15:05:00,
2013-10-10 11:30:00,55.1,52.5,29.94,WNW,293,1.6,1.6,91,0.00,,,0.17,WUHU216HW,2013-10-10 15:30:00,
2013-10-10 11:35:00,55.1,52.5,29.94,WNW,293,1.6,1.6,91,0.00,,,0.17,WUHU216HW,2013-10-10 15:35:00,
2013-10-10 12:00:00,55.6,52.7,29.94,NNW,338,1.8,1.8,90,0.00,,,0.17,WUHU216HW,2013-10-10 16:00:00,
2013-10-10 12:05:00,55.6,52.7,29.94,NNW,338,1.8,1.8,90,0.00,,,0.17,WUHU216HW,2013-10-10 16:05:00,
2013-10-10 12:30:00,56.0,53.1,29.94,NNW,338,1.1,1.1,90,0.00,,,0.17,WUHU216HW,2013-10-10 16:30:00,
2013-10-10 12:35:00,56.0,53.1,29.94,NNW,338,1.1,1.1,90,0.00,,,0.17,WUHU216HW,2013-10-10 16:35:00,
2013-10-10 13:00:00,56.3,53.1,29.93,North,0,1.1,1.1,89,0.00,,,0.17,WUHU216HW,2013-10-10 17:00:00,
2013-10-10 13:05:00,56.3,53.1,29.93,North,0,1.1,1.1,89,0.00,,,0.17,WUHU216HW,2013-10-10 17:05:00,
2013-10-10 13:30:00,56.7,53.5,29.91,NNE,23,1.1,1.1,89,0.00,,,0.17,WUHU216HW,2013-10-10 17:30:00,
2013-10-10 13:35:00,56.7,53.5,29.91,NNE,23,1.1,1.1,89,0.00,,,0.17,WUHU216HW,2013-10-10 17:35:00,
2013-10-10 14:00:00,57.2,54.0,29.90,WNW,293,2.2,2.2,89,0.00,,,0.17,WUHU216HW,2013-10-10 18:00:00,
2013-10-10 14:05:00,57.2,54.0,29.90,WNW,293,2.2,2.2,89,0.00,,,0.17,WUHU216HW,2013-10-10 18:05:00,
2013-10-10 14:30:00,57.2,53.7,29.90,North,0,5.4,5.4,88,0.00,,,0.17,WUHU216HW,2013-10-10 18:30:00,
2013-10-10 14:35:00,57.2,53.7,29.90,North,0,5.4,5.4,88,0.00,,,0.17,WUHU216HW,2013-10-10 18:35:00,
2013-10-10 15:00:00,57.8,54.5,29.90,North,0,5.6,5.6,89,0.00,,,0.17,WUHU216HW,2013-10-10 19:00:00,
2013-10-10 15:05:00,57.8,54.5,29.90,North,0,5.6,5.6,89,0.00,,,0.17,WUHU216HW,2013-10-10 19:05:00,
2013-10-10 15:30:00,58.1,54.9,29.89,WNW,293,1.8,1.8,89,0.00,,,0.17,WUHU216HW,2013-10-10 19:30:00,
2013-10-10 15:35:00,58.1,54.9,29.89,WNW,293,1.8,1.8,89,0.00,,,0.17,WUHU216HW,2013-10-10 19:35:00,
2013-10-10 16:00:00,58.1,54.9,29.88,North,0,5.4,5.4,89,0.00,,,0.17,WUHU216HW,2013-10-10 20:00:00,
2013-10-10 16:05:00,58.1,54.9,29.88,North,0,5.4,5.4,89,0.00,,,0.17,WUHU216HW,2013-10-10 20:05:00,
2013-10-10 16:30:00,58.5,55.6,29.88,North,0,1.3,1.3,90,0.01,,,0.17,WUHU216HW,2013-10-10 20:30:00,
2013-10-10 16:31:00,58.5,55.6,29.88,North,0,1.3,1.3,90,0.01,,,0.17,WUHU216HW,2013-10-10 20:31:00,
2013-10-10 16:36:00,58.5,55.6,29.88,North,0,1.3,1.3,90,0.01,,,0.17,WUHU216HW,2013-10-10 20:36:00,
2013-10-10 17:00:00,58.9,56.3,29.88,NNW,338,2.7,2.7,91,0.01,,,0.18,WUHU216HW,2013-10-10 21:00:00,
2013-10-10 17:05:00,58.9,56.3,29.88,NNW,338,2.7,2.7,91,0.01,,,0.18,WUHU216HW,2013-10-10 21:05:00,
2013-10-10 17:30:00,59.2,56.3,29.88,North,0,2.9,2.9,90,0.00,,,0.18,WUHU216HW,2013-10-10 21:30:00,
2013-10-10 17:35:00,59.2,56.3,29.88,North,0,2.9,2.9,90,0.00,,,0.18,WUHU216HW,2013-10-10 21:35:00,
2013-10-10 18:00:00,59.4,56.5,29.88,NW,315,1.1,1.1,90,0.01,,,0.18,WUHU216HW,2013-10-10 22:00:00,
2013-10-10 18:05:00,59.4,56.5,29.88,NW,315,1.1,1.1,90,0.01,,,0.18,WUHU216HW,2013-10-10 22:05:00,
2013-10-10 18:30:00,59.4,56.5,29.88,NNE,23,4.0,4.0,90,0.01,,,0.19,WUHU216HW,2013-10-10 22:30:00,
2013-10-10 18:35:00,59.4,56.5,29.88,NNE,23,4.0,4.0,90,0.01,,,0.19,WUHU216HW,2013-10-10 22:35:00,
2013-10-10 19:00:00,59.4,56.5,29.88,North,0,1.8,1.8,90,0.00,,,0.19,WUHU216HW,2013-10-10 23:00:00,
2013-10-10 19:05:00,59.4,56.5,29.88,North,0,1.8,1.8,90,0.00,,,0.19,WUHU216HW,2013-10-10 23:05:00,
2013-10-10 19:30:00,59.8,56.9,29.88,NW,315,1.6,1.6,90,0.00,,,0.19,WUHU216HW,2013-10-10 23:30:00,
2013-10-10 19:35:00,59.8,56.9,29.88,NW,315,1.6,1.6,90,0.00,,,0.19,WUHU216HW,2013-10-10 23:35:00,
2013-10-10 20:00:00,59.8,56.5,29.88,North,0,2.2,2.2,89,0.00,,,0.19,WUHU216HW,2013-10-11 00:00:00,
2013-10-10 20:05:00,59.8,56.5,29.88,North,0,2.2,2.2,89,0.00,,,0.19,WUHU216HW,2013-10-11 00:05:00,
2013-10-10 20:30:00,59.8,56.9,29.87,North,0,1.3,1.3,90,0.00,,,0.19,WUHU216HW,2013-10-11 00:30:00,
2013-10-10 20:35:00,59.8,56.9,29.87,North,0,1.3,1.3,90,0.00,,,0.19,WUHU216HW,2013-10-11 00:35:00,
2013-10-10 21:00:00,59.9,56.7,29.87,North,0,3.4,3.4,89,0.00,,,0.19,WUHU216HW,2013-10-11 01:00:00,
2013-10-10 21:05:00,59.9,56.7,29.87,North,0,3.4,3.4,89,0.00,,,0.19,WUHU216HW,2013-10-11 01:05:00,
2013-10-10 21:30:00,59.8,56.5,29.88,NNW,338,0.0,0.0,89,0.00,,,0.19,WUHU216HW,2013-10-11 01:30:00,
2013-10-10 21:35:00,59.8,56.5,29.88,NNW,338,0.0,0.0,89,0.00,,,0.19,WUHU216HW,2013-10-11 01:35:00,
2013-10-10 22:00:00,59.6,56.7,29.88,NW,315,1.1,1.1,90,0.00,,,0.19,WUHU216HW,2013-10-11 02:00:00,
2013-10-10 22:05:00,59.6,56.7,29.88,NW,315,1.1,1.1,90,0.00,,,0.19,WUHU216HW,2013-10-11 02:05:00,
2013-10-10 22:30:00,59.4,56.5,29.88,North,0,1.8,1.8,90,0.01,,,0.19,WUHU216HW,2013-10-11 02:30:00,
2013-10-10 22:35:00,59.4,56.5,29.88,North,0,1.8,1.8,90,0.01,,,0.19,WUHU216HW,2013-10-11 02:35:00,
2013-10-10 23:00:00,59.4,56.8,29.87,North,0,1.1,1.1,91,0.01,,,0.20,WUHU216HW,2013-10-11 03:00:00,
2013-10-10 23:05:00,59.4,56.8,29.87,North,0,1.1,1.1,91,0.01,,,0.20,WUHU216HW,2013-10-11 03:05:00,
2013-10-10 23:30:00,59.4,56.5,29.87,NNE,23,0.9,0.9,90,0.00,,,0.20,WUHU216HW,2013-10-11 03:30:00,
2013-10-10 23:35:00,59.4,56.5,29.87,NNE,23,0.9,0.9,90,0.00,,,0.20,WUHU216HW,2013-10-11 03:35:00,